This is the latest recevied weather packets stored in our database for station/object F4ETJ-1. If no packets are shown the sender has not sent any weather packets the latest 10 day(s).
| Time | Temp. | Humidity | Pressure | Rain* | Wind** | Luminosity | Snow |
|---|---|---|---|---|---|---|---|
| 1777553227 | 17.22° C | 92% | 1014.6 hPa | 2.29 mm | - | - | - |
| 1777552867 | 16.67° C | 92% | 1014.5 hPa | 2.79 mm | - | - | - |
| 1777552507 | 16.11° C | 93% | 1014.4 hPa | 3.05 mm | - | - | - |
| 1777552146 | 16.11° C | 93% | 1014.5 hPa | 3.56 mm | - | - | - |
| 1777551786 | 16.11° C | 93% | 1014.6 hPa | 4.06 mm | - | - | - |
| 1777551426 | 15.56° C | 93% | 1014.7 hPa | 4.06 mm | - | - | - |
| 1777551065 | 15.56° C | 93% | 1014.6 hPa | 4.32 mm | - | - | - |
| 1777550705 | 15.56° C | 92% | 1014.6 hPa | 4.57 mm | - | - | - |
| 1777550345 | 15.56° C | 92% | 1014.6 hPa | 4.06 mm | - | - | - |
| 1777549984 | 15.56° C | 92% | 1014.7 hPa | 3.81 mm | - | - | - |
| 1777549624 | 15.56° C | 92% | 1014.9 hPa | 3.56 mm | - | - | - |
| 1777549264 | 15.56° C | 92% | 1014.9 hPa | 3.05 mm | - | - | - |
| 1777548903 | 15.56° C | 92% | 1015 hPa | 2.79 mm | - | - | - |
| 1777548543 | 15.56° C | 92% | 1015.1 hPa | 2.54 mm | - | - | - |
| 1777548182 | 15.56° C | 92% | 1014.9 hPa | 2.03 mm | - | - | - |
| 1777547822 | 15.56° C | 91% | 1014.9 hPa | 1.78 mm | - | - | - |
| 1777547462 | 15.56° C | 91% | 1014.9 hPa | 1.27 mm | - | - | - |
| 1777547101 | 15.56° C | 91% | 1014.8 hPa | 0.76 mm | - | - | - |
| 1777546741 | 15.56° C | 91% | 1014.7 hPa | 0.76 mm | - | - | - |
| 1777546381 | 15.56° C | 91% | 1014.6 hPa | 1.02 mm | - | - | - |
| 1777546020 | 15.56° C | 91% | 1014.6 hPa | 1.27 mm | - | - | - |
| 1777545660 | 15.56° C | 90% | 1014.6 hPa | 1.27 mm | - | - | - |
| 1777545300 | 15.56° C | 90% | 1014.5 hPa | 1.52 mm | - | - | - |
| 1777544939 | 15.56° C | 90% | 1014.5 hPa | 1.27 mm | - | - | - |
| 1777544579 | 15.56° C | 90% | 1014.5 hPa | 1.27 mm | - | - | - |
* Rain latest hour (hover to see other rain measurements)
** Current wind speed in m/s (hover to see current wind gust speed)